Probability
17 22 27 28 27 23 19 14 11 9 8 6 6 5 5 5 4 3 3 3 3 3 3 2 1 0 0 0 0 0 0 0 0 0 0 0 0 0 0 0 0 0 0
17 22 26 28 27 24 21 17 14 12 9 7 6 5 5 5 4 3 3 3 3 3 3 2 1 0 0 0 0 0 0 0 0 0 0 0 0 0 0 0 0 0 0
18 21 25 29 30 28 23 19 17 15 13 10 8 7 6 6 5 3 3 3 3 3 3 2 0 0 0 0 0 0 0 1 0 0 0 0 0 0 0 0 0 0 0
18 20 24 29 31 29 24 19 16 17 15 13 10 8 7 6 6 4 3 3 3 3 3 2 1 0 0 0 0 0 0 0 0 0 0 0 0 0 0 0 0 0 0
20 20 22 25 27 27 23 18 16 16 15 13 11 9 8 7 6 6 4 3 3 3 4 3 2 0 0 0 0 0 0 0 0 0 0 0 0 0 0 0 0 0 0
21 20 21 22 23 24 23 19 17 17 16 13 10 10 9 8 8 8 6 4 3 4 5 5 4 1 0 0 0 0 0 0 0 0 0 0 0 0 0 0 0 0 0
21 21 21 21 22 24 24 22 18 17 17 14 11 11 11 11 12 11 7 4 3 4 5 5 3 2 0 0 0 0 0 0 0 0 0 0 0 0 0 0 0 0 0
23 21 19 19 20 23 24 21 18 16 17 16 13 12 13 14 14 12 9 6 4 4 3 3 1 1 0 0 0 0 0 0 0 0 0 0 0 0 0 0 0 0 0
23 20 17 17 19 22 23 20 18 17 17 18 17 15 14 14 13 12 9 7 6 4 2 1 1 1 1 1 0 0 0 0 0 0 0 0 0 0 0 0 0 0 0
21 20 17 17 20 23 23 22 19 17 16 16 17 16 14 12 11 10 8 7 6 5 3 3 3 3 3 2 1 0 0 0 0 0 0 0 0 0 0 0 0 0 0
19 19 18 18 21 25 26 24 20 16 14 14 14 14 13 11 10 9 8 7 6 6 5 4 4 5 4 2 1 0 0 0 0 0 0 0 0 0 0 0 0 0 0
20 19 17 18 22 27 29 25 20 17 16 15 15 14 13 12 11 10 9 8 7 7 6 5 5 5 3 1 0 0 0 0 0 0 0 0 0 0 0 0 0 0 0
23 20 17 18 22 27 30 27 22 20 19 18 18 17 15 13 12 10 9 9 8 7 6 5 5 4 3 1 0 0 0 0 0 0 0 0 0 0 0 0 0 0 0
23 21 19 20 21 25 29 29 25 23 21 20 19 17 15 12 10 9 9 9 9 8 7 5 4 3 3 2 1 0 0 0 0 0 0 0 0 0 0 0 0 0 0
25 24 23 22 21 23 27 29 28 24 21 19 18 16 12 10 8 8 8 8 9 9 8 6 4 4 3 2 1 0 0 0 0 0 0 0 0 0 0 0 0 0 0
29 30 30 27 24 24 26 29 29 24 20 18 16 13 11 9 9 9 8 8 8 8 8 6 5 4 3 1 0 0 0 0 0 0 0 0 0 0 0 0 0 0 0
29 33 35 33 30 28 29 30 29 25 19 15 13 11 10 10 10 11 11 9 8 9 9 8 6 4 1 0 0 0 0 0 0 0 0 0 0 0 0 0 0 0 0
27 31 33 33 34 33 31 30 29 24 19 15 13 11 10 11 12 13 14 13 11 11 11 9 7 4 1 0 0 0 0 0 0 0 0 0 0 0 0 0 0 0 0
26 26 26 29 33 33 30 29 27 23 19 17 16 13 12 14 15 15 16 15 14 13 12 9 7 5 2 1 0 0 0 0 0 0 0 0 0 0 0 0 0 0 0
22 21 21 25 29 30 30 30 28 25 24 23 20 18 17 17 16 15 15 14 14 13 11 9 7 5 3 2 1 0 0 0 0 0 0 0 0 0 0 0 0 1 1
16 14 16 21 24 26 30 32 32 31 31 30 26 22 19 16 14 12 12 11 12 12 11 9 7 4 3 3 1 0 0 0 0 0 0 0 0 0 0 0 0 1 2
11 10 12 17 20 23 28 32 32 33 34 33 28 23 19 15 12 10 9 9 9 11 11 9 6 4 3 3 2 1 0 0 0 0 0 0 0 0 0 0 0 1 1
10 9 11 14 17 21 25 27 29 30 30 28 24 21 19 17 13 10 7 7 8 10 10 8 5 3 3 3 3 1 0 0 0 0 0 0 0 0 0 0 0 0 0
12 11 11 13 14 18 21 22 23 24 24 23 21 21 21 21 16 10 7 6 7 8 9 7 5 4 4 4 3 2 1 0 0 0 0 0 0 0 0 0 0 0 0
13 12 12 12 13 15 16 15 16 19 21 21 21 22 22 21 17 11 7 6 5 5 5 6 6 6 5 5 3 2 2 1 0 0 0 0 0 0 0 0 0 0 0
12 12 11 12 12 13 12 10 12 17 21 22 22 22 22 20 16 11 7 4 2 2 2 5 6 7 6 5 3 2 1 1 1 0 0 0 0 0 0 0 0 0 0
Wind_Speed
8 8 9 8 7 6 5 5 5 4 3 2 1 1 1 0 0 1 2 2 2 3 3 2 1 2 2 2 2 2 1 1 1 1 1 2 1 1 1 1 2 2 3
7 8 8 8 8 7 6 5 5 4 3 2 2 2 2 1 1 1 1 1 2 2 3 3 2 2 2 2 1 1 1 1 1 2 1 1 2 2 1 1 2 2 2
11 10 9 8 8 7 7 6 5 5 4 3 2 1 2 1 1 0 0 1 2 2 2 3 3 2 2 2 2 2 3 1 1 1 3 2 2 1 2 1 1 1 1
10 10 9 9 9 8 6 5 5 4 4 4 3 3 2 2 2 2 1 1 1 1 2 2 3 3 2 2 2 2 2 2 1 1 1 2 3 2 1 2 1 1 1
12 11 11 10 9 8 7 5 5 4 4 3 3 3 2 2 1 1 1 1 1 1 1 2 2 3 2 3 2 2 2 2 3 2 1 1 1 2 2 2 2 1 1
11 10 9 8 7 7 6 6 5 4 4 4 3 4 4 3 2 1 1 1 1 1 1 1 1 2 2 3 3 2 3 2 2 2 2 2 2 2 2 2 2 1 1
9 9 9 9 8 8 7 6 6 4 3 4 3 3 4 4 3 2 2 2 1 1 1 1 1 1 2 2 2 2 2 2 2 2 2 2 2 2 2 2 2 1 1
8 9 9 9 9 9 8 7 6 4 4 3 3 2 3 2 2 2 2 2 2 2 1 1 1 1 1 1 1 1 1 1 1 1 2 1 2 2 2 3 3 1 1
9 8 8 8 8 8 7 7 7 5 4 3 3 2 1 2 2 2 2 1 1 1 1 1 1 1 1 1 2 1 1 1 1 1 1 1 1 1 1 2 3 3 2
8 8 7 8 8 7 7 7 7 6 4 3 3 2 2 1 2 2 2 1 1 1 1 1 1 1 1 1 2 1 0 1 1 1 1 0 0 0 0 1 1 2 2
8 8 7 7 8 8 7 7 6 5 4 3 3 2 2 2 2 1 1 2 1 1 2 1 2 2 2 1 1 1 1 1 1 1 1 1 0 1 1 0 0 1 2
7 7 8 8 8 8 8 7 6 5 5 5 4 3 2 2 2 2 2 2 2 1 1 2 2 2 2 1 2 1 1 1 2 1 2 1 1 1 1 1 1 0 1
6 6 6 7 8 8 8 7 6 6 5 4 4 3 3 3 3 2 2 2 2 1 1 2 2 2 1 1 1 1 1 2 1 1 2 1 2 2 2 2 1 1 1
9 8 7 6 7 7 8 7 6 6 5 4 4 4 3 3 3 2 2 2 2 2 2 2 2 2 2 1 1 1 2 2 2 1 2 2 2 2 1 2 1 1 2
8 8 8 7 6 7 7 6 6 5 5 5 4 3 3 2 2 2 2 2 2 2 2 2 2 2 2 1 1 1 2 2 2 2 2 2 4 4 2 2 1 2 2
7 7 8 8 7 8 8 7 6 6 5 5 4 3 3 3 2 2 2 2 2 2 2 2 2 2 1 2 2 3 2 2 2 2 2 2 3 4 4 4 3 3 3
6 7 8 8 8 8 9 8 7 6 5 4 4 3 4 3 2 3 2 2 2 2 2 2 2 2 1 2 3 4 3 2 2 2 1 2 2 2 2 3 3 3 3
6 6 6 6 6 6 7 7 7 6 5 4 4 4 4 3 2 2 2 2 2 2 2 2 2 2 1 2 4 4 3 3 2 2 2 2 1 2 2 2 3 2 2
6 5 5 6 6 6 7 7 7 6 5 5 4 4 4 4 3 2 2 2 2 2 2 2 3 3 1 2 4 4 3 2 2 1 2 2 1 2 3 3 2 2 2
4 4 3 4 5 5 6 7 6 6 6 6 5 4 4 4 4 3 2 1 2 2 2 2 2 3 1 2 3 5 3 2 1 1 1 1 2 2 2 2 2 1 1
5 5 4 4 4 5 7 6 5 6 6 6 5 5 5 5 4 3 2 2 2 2 2 2 2 2 1 1 3 4 3 2 2 1 0 0 1 2 2 2 1 1 1
4 4 4 3 3 5 7 6 5 5 5 5 5 5 4 4 4 4 2 2 3 2 2 2 1 0 0 0 1 3 3 3 2 1 1 1 1 2 2 1 1 2 3
3 3 4 4 2 3 5 6 4 4 4 5 5 4 4 3 3 4 3 2 2 2 2 2 2 1 1 0 1 2 3 3 2 1 1 1 2 2 2 2 2 2 2
3 3 4 4 3 2 3 4 4 4 4 4 4 4 4 3 3 2 3 3 3 3 3 3 3 2 1 1 1 0 1 2 2 1 1 2 3 3 2 2 2 1 1
3 3 4 4 4 4 3 3 3 4 4 5 4 4 4 4 3 2 1 2 3 4 5 4 4 4 3 4 4 3 2 2 2 2 2 2 2 2 1 1 1 1 1
3 3 3 4 4 4 3 3 3 4 5 4 5 4 4 4 3 3 1 2 1 2 4 5 5 4 4 5 5 5 4 4 5 4 2 1 1 1 1 1 0 0 0
Wind_Direction
172 166 162 159 154 155 155 155 152 162 144 129 130 135 156 165 153 186 184 184 176 167 162 174 180 179 175 188 181 166 170 213 150 90 7 347 328 224 224 204 176 182 189
164 166 165 164 165 167 166 161 160 165 165 167 168 167 159 169 179 193 173 187 182 181 175 169 173 181 172 173 178 153 150 227 151 135 111 355 343 337 277 192 182 194 183
174 174 171 171 169 172 174 172 170 169 172 165 134 92 69 50 51 320 229 223 191 188 184 180 175 175 160 175 191 174 162 191 233 158 147 157 218 286 325 304 189 179 188
177 174 172 171 174 177 172 165 166 167 170 159 148 147 149 169 206 201 201 229 208 186 187 188 182 181 174 188 208 186 175 165 200 239 204 174 165 167 268 316 299 201 187
177 177 176 174 172 169 166 164 160 164 164 159 164 153 156 184 192 175 172 219 265 226 208 198 179 183 185 195 200 182 179 179 188 196 199 196 180 166 175 247 283 305 258
175 174 168 159 162 162 160 158 157 165 164 160 172 167 170 172 158 165 176 221 259 273 251 195 173 184 188 195 204 194 192 199 197 193 185 177 184 199 180 204 233 250 262
167 164 162 163 164 163 163 162 162 170 172 170 177 177 173 166 168 170 181 191 211 237 248 215 190 194 205 201 195 194 209 204 201 205 209 204 211 194 180 174 201 220 262
160 166 172 169 167 167 166 162 163 166 169 169 174 169 166 162 161 163 178 187 201 214 216 190 189 194 190 180 167 186 221 195 204 220 211 202 222 202 186 175 171 193 272
162 165 167 163 164 163 165 163 164 167 169 163 142 126 148 161 163 164 163 161 182 166 149 157 152 160 148 139 134 140 220 165 183 205 188 183 224 211 201 177 168 167 201
156 157 161 164 166 165 162 159 160 163 163 161 159 154 146 167 168 151 143 140 139 101 108 95 115 112 105 112 115 118 108 103 91 101 81 56 273 302 91 154 161 165 174
159 162 170 172 164 158 156 159 161 158 159 159 155 138 143 133 137 140 144 139 119 115 118 119 113 111 105 102 95 91 93 94 69 63 73 36 74 51 28 84 112 143 161
163 164 171 168 160 160 159 161 164 166 167 163 153 148 150 143 151 158 164 145 133 132 137 133 119 116 106 104 114 108 83 96 88 76 74 43 57 58 52 70 67 114 181
159 160 160 165 162 162 160 162 165 168 164 156 149 151 161 164 165 172 165 152 141 132 115 116 119 108 100 90 93 106 92 94 99 92 94 81 75 54 41 56 56 42 66
167 166 161 165 162 159 158 159 163 161 158 154 155 157 170 174 165 161 149 147 141 129 113 106 106 103 96 81 66 79 90 90 86 84 90 88 94 91 73 70 63 79 79
162 167 168 165 165 162 161 161 160 157 157 154 155 164 165 156 138 135 132 126 124 124 121 106 93 85 86 74 103 112 105 104 95 77 74 80 83 82 75 84 88 91 92
159 165 164 163 170 173 171 165 162 162 156 155 163 163 152 141 138 144 135 121 112 102 95 98 97 79 62 69 105 116 112 106 104 93 63 67 68 63 60 68 79 100 117
160 162 165 174 181 181 172 167 166 156 150 151 150 154 151 148 155 152 128 135 144 130 118 111 102 96 65 91 111 116 116 111 121 122 103 72 61 59 58 49 47 53 67
152 161 165 177 185 174 162 156 151 149 152 155 156 154 151 155 155 146 147 155 156 152 143 129 127 118 78 96 114 112 102 97 101 111 120 111 74 51 71 77 56 38 21
163 161 164 168 163 158 157 148 147 150 151 167 173 172 164 157 149 151 160 166 147 140 145 145 143 128 89 91 114 117 103 95 86 82 95 110 101 42 81 90 74 40 356
139 140 142 132 136 150 146 145 152 158 169 175 173 169 165 160 158 163 168 171 160 151 144 141 143 139 136 106 116 123 117 108 94 57 57 92 100 68 92 107 105 68 318
143 133 126 129 143 144 138 147 156 175 180 169 163 165 167 164 162 158 167 157 152 135 143 147 143 142 152 134 115 126 132 145 142 145 291 295 83 75 85 120 145 199 187
130 130 129 126 129 138 138 151 173 178 161 157 163 170 171 172 162 157 163 155 150 148 161 152 142 156 186 128 117 126 129 141 144 183 233 245 118 98 97 106 102 112 97
137 137 133 130 137 145 151 158 175 159 152 158 168 172 166 169 160 162 166 160 156 164 175 168 178 201 217 244 107 125 126 120 132 187 192 111 102 90 74 71 85 96 96
149 140 132 139 161 163 158 165 162 151 158 168 177 173 163 161 158 162 169 171 176 182 185 182 189 194 200 214 210 180 135 106 92 71 55 72 69 62 49 40 46 61 114
163 159 157 170 180 179 175 177 160 150 166 177 180 175 170 165 162 156 174 192 204 197 190 194 191 185 202 221 199 176 179 181 176 119 71 56 49 42 28 22 11 16 49
166 163 170 184 186 179 179 184 174 166 167 175 181 180 176 173 166 159 110 13 239 212 199 194 189 204 206 191 182 176 172 163 147 126 125 143 156 171 180 173 313 356 23